Regional Weather Roundup
Issued by NWS Midland/Odessa, TX

Home | Current Version | Previous Version | Text Only | Print | Product List | Glossary On
Versions: 1 2 3 4 5 6 7 8 9 10 11 12 13 14 15 16 17 18 19 20 21 22 23 24 25 26 27 28 29 30 31 32 33 34 35 36 37 38 39 40 41 42 43 44 45 46 47 48 49 50
000
ASUS44 KMAF 031710
RWRMAF
MIDLAND AREA WEATHER ROUNDUP
NATIONAL WEATHER SERVICE MIDLAND TX
1100 AM CST TUE MAR 03 2015

...IN SOUTHWEST TEXAS AND SOUTHEAST NEW MEXICO...

CITY           SKY/WX    TMP DP  RH WIND       PRES   REMARKS
ALPINE         CLOUDY    65  37  36 SW18G29   29.99F
ANDREWS        CLOUDY    44  44 100 CALM      29.91S
ARTESIA        CLOUDY    39  39 100 N6        29.94R FOG     WCI  35
BIG SPRING     CLOUDY   N/A N/A N/A SW9       29.94S
CARLSBAD       CLOUDY    43  37  79 NW5       29.91R
DRYDEN           N/A     49  43  80 SW6       29.93F
FORT STOCKTON  CLOUDY    52  44  74 N3        29.90R
GUAD PASS      NOT AVBL
HOBBS          PTSUNNY   45  45 100 VRB5      29.91S
MARFA          CLOUDY    59  39  47 S8        29.98F
MIDLAND AIRPK  CLOUDY    47  47 100 S3        29.90F
MIDLAND INTL   CLOUDY    46  45  96 S5        29.89F FOG
ODESSA         CLOUDY    45  44  97 CALM      29.91R FOG
PECOS          CLOUDY    42  39  89 CALM      29.90F
PRESIDIO       FAIR      64  44  47 E3        29.89F
SEMINOLE       CLOUDY    44  44 100 N6        29.92F
SNYDER         CLOUDY    46  45  99 W12       29.93R FOG
WINK           CLOUDY    45  41  86 CALM      29.89F
$$
...OTHER STATIONS IN TEXAS...

CITY           SKY/WX    TMP DP  RH WIND       PRES   REMARKS
ABILENE        CLOUDY    50  45  83 S10       29.92F
AMARILLO       CLOUDY    49  35  58 W10       29.84F
AUSTIN         FOG       45  45 100 CALM      30.00F VSB 1/4
BROWNSVILLE    CLOUDY    70  67  90 SE9       30.01F FOG
CORPUS CHRISTI CLOUDY    63  61  93 S9G17     30.00S FOG
DALLAS FTW     DRIZZLE   46  45  96 SW5       29.99S FOG
DEL RIO        CLOUDY    52  47  83 SE7       29.97F
EL PASO        LGT RAIN  52  48  86 NE8       29.92S
HOUSTON INT    FOG       65  65 100 SE7       30.02F VSB 1/8
LUBBOCK        CLOUDY    46  41  82 SW9       29.91S
SAN ANGELO     CLOUDY    49  46  90 CALM      29.92F
SAN ANTONIO    FOG       53  51  93 S3        30.00F VSB 1/4
WACO           FOG       44  43  96 CALM      30.00F VSB 1/2
WICHITA FALLS  NOT AVBL
$$
...OTHER LOCATIONS IN NEW MEXICO...

CITY           SKY/WX    TMP DP  RH WIND       PRES   REMARKS
ALAMAGORDO     CLOUDY    50  50 100 E7        29.96S
ALBUQUERQUE    PTSUNNY   45  27  49 CALM      29.93S
CANNON AFB     CLOUDY    45  37  73 NW10      29.86F WCI  39
CLOVIS         CLOUDY    45  36  70 NW12      29.87F WCI  39
HOLLOMAN AFB   PTSUNNY   51  50  99 S6        29.92F
ROSWELL        CLOUDY    39  37  92 N3        29.92F FOG
RUIDOSO        LGT RAIN  41  39  93 S9        29.96S WCI  35
SANTA FE       MOSUNNY   40  24  53 W12       29.91S WCI  33
TRUTH OR CONSE CLOUDY    46  42  86 VRB3      29.92F
TUCUMCARI      CLOUDY    50  33  52 W17       29.85F
$$


USA.gov is the U.S. government's official web portal to all federal, state and local government web resources and services.